Regional Weather Roundup
Issued by NWS Albany, NY

Home | Current Version | Previous Version | Text Only | Print | Product List | Glossary On
Versions: 1 2 3 4 5 6 7 8 9 10 11 12 13 14 15 16 17 18 19 20 21 22 23 24 25 26 27 28 29 30 31 32 33 34 35 36 37 38 39 40 41 42 43 44 45 46 47 48 49 50
000
ASUS41 KALY 232310
RWRALY

NEW YORK STATE HOURLY WEATHER ROUNDUP
NATIONAL WEATHER SERVICE ALBANY NY
700 PM EDT WED AUG 23 2017

NOTE: "FAIR" INDICATES FEW OR NO CLOUDS BELOW 12,000 FEET WITH NO
SIGNIFICANT WEATHER AND/OR NO OBSTRUCTIONS TO VISIBILITY.

NYZ032-033-038>043-046>054-057>066-NYZ062>081-082-084-240000-
EAST


CITY           SKY/WX    TMP DP  RH WIND       PRES   REMARKS
ALBANY         PTCLDY    72  53  51 NW9       29.84R
GLENS FALLS    MOCLDY    72  49  44 VRB6      29.81R
POUGHKEEPSIE   CLEAR     75  51  43 NW7       29.82S
NEWBURGH       CLEAR     73  55  53 W12       29.86R
MONTGOMERY     CLEAR     75  53  46 W6        29.84S
WHITE PLAINS   PTCLDY    76  53  44 W9        29.84R
ISLIP          MOCLDY    78  55  44 NW6       29.82S
NEW YORK CITY  MOCLDY    80  56  43 NW14      29.82S
CENTRAL PARK   CLEAR     78  52  40 VRB3      29.86S
$$

NYZ005>009-017-018-044>046-055-056-240000-
CENTRAL


CITY           SKY/WX    TMP DP  RH WIND       PRES   REMARKS
FULTON         CLOUDY    69  57  65 W6        29.85R
SYRACUSE       MOCLDY    70  52  52 W9        29.84S
ROME           PTCLDY    71  52  50 W9        29.84F
ELMIRA         PTCLDY    72  58  61 W3        29.86S
BINGHAMTON     PTCLDY    67  50  54 NW5       29.89S
MONTICELLO     CLEAR     69  51  52 W6        29.90S
$$

NYZ026>034-041>043-087-240000-
NORTH


CITY           SKY/WX    TMP DP  RH WIND       PRES   REMARKS
WATERTOWN      PTCLDY    68  57  68 W13       29.82S
FORT DRUM      NOT AVBL
OGDENSBURG     LGT RAIN  60  57  88 CALM      29.81R
MASSENA        LGT RAIN  61  59  93 W3        29.80R
SARANAC LAKE   CLOUDY    59  55  87 SW14G20   29.83S
PLATTSBURGH    CLOUDY    67  56  67 S6        29.78S
$$

NYZ001>004-010>016-019>021-085-240000-
WEST


CITY           SKY/WX    TMP DP  RH WIND       PRES   REMARKS
NIAGARA FALLS  MOSUNNY   72  49  44 NW14      29.89R
BUFFALO        PTSUNNY   71  53  52 NW9       29.89R
DUNKIRK        CLOUDY    69  56  62 W10G20    29.91S
JAMESTOWN      MOSUNNY   64  54  68 W7        29.96R
WELLSVILLE     SUNNY     66  49  54 W13       29.94F
ROCHESTER      MOCLDY    65  60  84 W9        29.88S
PENN YAN       MOCLDY    71  50  47 W9        29.88R
$$

             KEY
       WCI = WIND CHILL INDEX
       VSB = VISIBILITY
       HX  = HEAT INDEX
$$



USA.gov is the U.S. government's official web portal to all federal, state and local government web resources and services.